Flag for Germany Weather past 2 weeks in Ganderkesee, Lower Saxony, Germany

Now
50 °F

Fog.


Feels Like: 49 °F
Forecast: 57 / 81 °F
Wind: 3 mph from West

Location: Bremen Airport

Current Time: Jun 30, 2015 at 6:25:58 AM

Latest Report: Jun 30, 2015 at 5:50 AM


Visibility: N/A

Pressure: 30.21 "Hg

Humidity: 100%

Dew point: 50 °F

Location of GanderkeseeLocation

Historic Weather in Ganderkesee — Graph

°F

Ganderkesee temperature yesterday

Maximum temperature yesterday: 77 °F (at 2:50 PM)
Minimum temperature yesterday: 57 °F (at 5:20 AM)
Average temperature yesterday: 66 °F

Past Weeks' High & Low Weather Summary

 TemperatureHumidityPressure
High77 °F (Jun 29, 2:50 PM)100% (Jun 17, 1:50 AM)30.27 "Hg (Jun 17, 1:50 AM)
Low41 °F (Jun 17, 4:20 AM)38% (Jun 28, 3:20 PM)29.65 "Hg (Jun 22, 7:50 PM)
Average58 °F76%30.04 "Hg
* Reported Jun 15 5:20 AM — Jun 30 5:20 AM, Ganderkesee, Weather by CustomWeather, © 2015

Note: Actual official high and low records may vary slightly from our data, if they occured in-between our weather recording intervals... More about our weather records

Advertising

Ganderkesee weather history for previous 24 hours

 ConditionsComfort  
Time TempWeatherWind HumidityBarometerVisibility
5:20 AM
Tue, Jun 30
48 °FFog.2 mph100%30.21 "HgN/A
4:20 AM50 °FFog.1 mph100%30.18 "HgN/A
3:50 AM52 °FFog.No wind94%30.18 "HgN/A
3:20 AM52 °FClear.2 mph94%30.18 "Hg10 mi
2:50 AM52 °FClear.3 mph100%30.21 "Hg10 mi
2:20 AM54 °FClear.3 mph94%30.21 "Hg10 mi
1:50 AM55 °FClear.No wind88%30.18 "Hg10 mi
1:20 AM61 °FClear.5 mph72%30.21 "Hg10 mi
12:50 AM61 °FPassing clouds.6 mph77%30.21 "HgN/A
12:20 AM59 °FClear.2 mph77%30.21 "Hg10 mi
11:20 PM
Mon, Jun 29
63 °FClear.8 mph68%30.21 "Hg10 mi
10:50 PM63 °FSunny.6 mph73%30.18 "Hg10 mi
10:20 PM64 °FPassing clouds.8 mph64%30.18 "HgN/A
9:50 PM66 °FSunny.9 mph64%30.18 "Hg10 mi
9:20 PM66 °FSunny.9 mph60%30.18 "Hg10 mi
8:50 PM68 °FPartly sunny.9 mph49%30.18 "HgN/A
8:20 PM68 °FBroken clouds.10 mph49%30.18 "HgN/A
7:50 PM70 °FBroken clouds.9 mph50%30.15 "HgN/A
7:20 PM68 °FPartly sunny.15 mph56%30.15 "HgN/A
6:50 PM70 °FBroken clouds.14 mph60%30.15 "HgN/A
6:20 PM70 °FBroken clouds.15 mph60%30.15 "HgN/A
5:50 PM72 °FBroken clouds.13 mph61%30.12 "HgN/A
5:20 PM73 °FBroken clouds.14 mph57%30.12 "HgN/A
4:50 PM75 °FPassing clouds.12 mph47%30.12 "HgN/A
4:20 PM75 °FPassing clouds.8 mph44%30.12 "HgN/A
3:50 PM77 °FScattered clouds.6 mph42%30.12 "HgN/A
3:20 PM73 °FScattered clouds.12 mph50%30.12 "HgN/A
2:50 PM77 °FScattered clouds.7 mph47%30.12 "HgN/A
2:20 PM73 °FScattered clouds.8 mph50%30.12 "HgN/A
1:50 PM73 °FScattered clouds.6 mph50%30.12 "HgN/A
1:20 PM73 °FScattered clouds.8 mph53%30.12 "HgN/A
12:50 PM72 °FScattered clouds.8 mph57%30.12 "HgN/A
12:20 PM72 °FPartly sunny.7 mph57%30.12 "HgN/A
11:50 AM72 °FScattered clouds.7 mph57%30.12 "HgN/A
11:20 AM70 °FPassing clouds.7 mph57%30.12 "HgN/A
10:50 AM70 °FScattered clouds.7 mph60%30.12 "HgN/A
10:20 AM70 °FScattered clouds.6 mph60%30.09 "HgN/A
9:50 AM68 °FScattered clouds.3 mph69%30.09 "HgN/A
9:20 AM66 °FPassing clouds.5 mph68%30.09 "HgN/A
8:50 AM66 °FPassing clouds.5 mph68%30.09 "HgN/A
8:20 AM64 °FPassing clouds.3 mph78%30.09 "HgN/A
7:50 AM63 °FPassing clouds.2 mph77%30.09 "HgN/A
7:20 AM63 °FPassing clouds.2 mph83%30.09 "HgN/A
6:50 AM61 °FPassing clouds.2 mph88%30.09 "HgN/A
6:20 AM57 °FSunny.1 mph94%30.09 "Hg10 mi
Weather by CustomWeather, © 2015

See weather overviewHow to use our weather pages